When you browse on this site, cookies collect data to enhance your experience and personalize the content and advertising you see.
Visit our Privacy Policy to learn more. By continuing to use the site, you agree to this use of cookies and data.
  • In Spain
  • List of Countries
  • For 7 days
  • Water Temperature
  • Satellite Maps
  • Weather Map
  • Weather Widgets
  • user-avatar
    Login

    Hourly Weather Idlib

    Today, 25 April, Thursday

    Time Temperature Precipitation Wind Pressure Humidity
    00:00 +13°C° 0 mm 1 mps 729 mmHg 56%
    01:00 +13°C° 0 mm 1 mps 729 mmHg 54%
    02:00 +12°C° 0 mm 1 mps 728 mmHg 50%
    03:00 +12°C° 0 mm 1 mps 728 mmHg 48%
    04:00 +12°C° 0 mm 1 mps 728 mmHg 47%
    05:00 +12°C° 0 mm 1 mps 728 mmHg 45%
    06:00 +14°C° 0 mm 1 mps 729 mmHg 42%
    07:00 +15°C° 0 mm 0 mps 729 mmHg 39%
    08:00 +17°C° 0 mm 0 mps 729 mmHg 37%
    09:00 +21°C° 0 mm 1 mps 729 mmHg 35%
    10:00 +22°C° 0 mm 1 mps 729 mmHg 32%
    11:00 +24°C° 0 mm 1 mps 729 mmHg 30%
    12:00 +24°C° 0 mm 1 mps 729 mmHg 30%
    13:00 +25°C° 0 mm 1 mps 728 mmHg 30%
    14:00 +25°C° 0 mm 2 mps 728 mmHg 29%
    15:00 +25°C° 0 mm 2 mps 728 mmHg 33%
    16:00 +24°C° 0 mm 2 mps 728 mmHg 36%
    17:00 +24°C° 0 mm 2 mps 728 mmHg 40%
    18:00 +21°C° 0 mm 2 mps 727 mmHg 44%
    19:00 +20°C° 0 mm 1 mps 727 mmHg 48%
    20:00 +19°C° 0 mm 1 mps 727 mmHg 53%
    21:00 +18°C° 0 mm 1 mps 727 mmHg 55%
    22:00 +16°C° 0 mm 1 mps 727 mmHg 57%
    23:00 +15°C° 0 mm 0 mps 727 mmHg 58%

    Tomorrow, 26 April, Friday

    Time Temperature Precipitation Wind Pressure Humidity
    00:00 +15°C° 0 mm 1 mps 727 mmHg 59%
    01:00 +15°C° 0 mm 1 mps 727 mmHg 59%
    02:00 +15°C° 0 mm 1 mps 726 mmHg 59%
    03:00 +14°C° 0 mm 1 mps 726 mmHg 60%
    04:00 +13°C° 0 mm 0 mps 726 mmHg 61%
    05:00 +13°C° 0 mm 0 mps 726 mmHg 62%
    06:00 +15°C° 0 mm 0 mps 726 mmHg 56%
    07:00 +17°C° 0 mm 0 mps 726 mmHg 51%
    08:00 +19°C° 0 mm 0 mps 727 mmHg 45%
    09:00 +20°C° 0 mm 0 mps 727 mmHg 42%
    10:00 +22°C° 0 mm 0 mps 727 mmHg 38%
    11:00 +25°C° 0 mm 1 mps 727 mmHg 35%
    12:00 +26°C° 0 mm 1 mps 726 mmHg 34%
    13:00 +26°C° 0 mm 1 mps 726 mmHg 33%
    14:00 +27°C° 0 mm 1 mps 726 mmHg 32%
    15:00 +26°C° 0 mm 1 mps 725 mmHg 35%
    16:00 +26°C° 0 mm 2 mps 725 mmHg 39%
    17:00 +25°C° 0 mm 2 mps 725 mmHg 42%
    18:00 +24°C° 0 mm 2 mps 725 mmHg 47%
    19:00 +21°C° 0 mm 2 mps 725 mmHg 53%
    20:00 +19°C° 0 mm 2 mps 725 mmHg 58%
    21:00 +19°C° 0 mm 1 mps 725 mmHg 59%
    22:00 +19°C° 0 mm 1 mps 725 mmHg 60%
    23:00 +18°C° 0 mm 1 mps 725 mmHg 61%

    Day after tomorrow, 27 April, Saturday

    Time Temperature Precipitation Wind Pressure Humidity
    00:00 +18°C° 0 mm 1 mps 724 mmHg 61%
    01:00 +18°C° 0 mm 1 mps 724 mmHg 61%
    02:00 +16°C° 0 mm 1 mps 724 mmHg 61%
    03:00 +16°C° 0 mm 1 mps 724 mmHg 61%
    04:00 +16°C° 0 mm 1 mps 724 mmHg 61%
    05:00 +16°C° 0 mm 1 mps 724 mmHg 61%
    06:00 +18°C° 0 mm 1 mps 724 mmHg 57%
    07:00 +20°C° 0 mm 1 mps 724 mmHg 53%
    08:00 +20°C° 0 mm 2 mps 725 mmHg 48%
    09:00 +21°C° 0 mm 2 mps 725 mmHg 44%
    10:00 +23°C° 0 mm 2 mps 725 mmHg 40%
    11:00 +24°C° 0 mm 2 mps 725 mmHg 36%
    12:00 +24°C° 0 mm 2 mps 725 mmHg 35%
    13:00 +24°C° 0 mm 2 mps 725 mmHg 34%
    14:00 +24°C° 0 mm 3 mps 724 mmHg 33%
    15:00 +24°C° 0 mm 2 mps 724 mmHg 35%
    16:00 +24°C° 0 mm 2 mps 724 mmHg 37%
    17:00 +23°C° 0 mm 2 mps 724 mmHg 39%
    18:00 +21°C° 0 mm 2 mps 724 mmHg 42%
    19:00 +20°C° 0 mm 1 mps 724 mmHg 45%
    20:00 +18°C° 0 mm 1 mps 724 mmHg 49%
    21:00 +18°C° 0 mm 1 mps 724 mmHg 50%
    22:00 +16°C° 0 mm 1 mps 724 mmHg 50%
    23:00 +15°C° 0 mm 0 mps 724 mmHg 51%

    28 April, Sunday

    Time Temperature Precipitation Wind Pressure Humidity
    00:00 +15°C° 0 mm 0 mps 723 mmHg 52%
    01:00 +14°C° 0 mm 0 mps 723 mmHg 52%
    02:00 +14°C° 0 mm 0 mps 723 mmHg 52%
    03:00 +14°C° 0 mm 0 mps 723 mmHg 53%
    04:00 +15°C° 0 mm 1 mps 723 mmHg 53%
    05:00 +15°C° 0 mm 1 mps 723 mmHg 53%
    06:00 +18°C° 0 mm 1 mps 723 mmHg 49%
    07:00 +19°C° 0 mm 2 mps 724 mmHg 45%
    08:00 +21°C° 0 mm 2 mps 724 mmHg 41%
    09:00 +24°C° 0 mm 2 mps 724 mmHg 37%
    10:00 +25°C° 0 mm 3 mps 724 mmHg 33%
    11:00 +27°C° 0 mm 3 mps 724 mmHg 29%
    12:00 +27°C° 0 mm 2 mps 724 mmHg 27%
    13:00 +28°C° 0 mm 1 mps 723 mmHg 25%
    14:00 +26°C° 0 mm 0 mps 723 mmHg 24%
    15:00 +28°C° 0 mm 1 mps 723 mmHg 29%
    16:00 +27°C° 0 mm 2 mps 723 mmHg 33%
    17:00 +27°C° 0 mm 3 mps 723 mmHg 38%
    18:00 +25°C° 0 mm 3 mps 723 mmHg 44%
    19:00 +23°C° 0 mm 2 mps 723 mmHg 49%
    20:00 +19°C° 0 mm 2 mps 723 mmHg 55%
    21:00 +19°C° 0 mm 2 mps 723 mmHg 55%
    22:00 +19°C° 0 mm 1 mps 723 mmHg 56%
    23:00 +18°C° 0 mm 1 mps 723 mmHg 56%

    29 April, Monday

    Time Temperature Precipitation Wind Pressure Humidity
    00:00 +18°C° 0 mm 1 mps 722 mmHg 56%
    01:00 +18°C° 0 mm 1 mps 722 mmHg 55%
    02:00 +16°C° 0 mm 1 mps 722 mmHg 55%
    03:00 +16°C° 0 mm 1 mps 722 mmHg 55%
    04:00 +16°C° 0 mm 1 mps 722 mmHg 55%
    05:00 +15°C° 0 mm 1 mps 722 mmHg 55%
    06:00 +18°C° 0 mm 1 mps 722 mmHg 49%
    07:00 +21°C° 0 mm 1 mps 722 mmHg 43%
    08:00 +23°C° 0 mm 1 mps 723 mmHg 37%
    09:00 +24°C° 0 mm 1 mps 723 mmHg 34%
    10:00 +26°C° 0 mm 2 mps 723 mmHg 31%
    11:00 +27°C° 0 mm 2 mps 723 mmHg 28%
    12:00 +28°C° 0 mm 2 mps 723 mmHg 28%
    13:00 +28°C° 0 mm 3 mps 723 mmHg 28%
    14:00 +29°C° 0 mm 3 mps 722 mmHg 27%
    15:00 +28°C° 0 mm 3 mps 722 mmHg 31%
    16:00 +27°C° 0 mm 3 mps 722 mmHg 34%
    17:00 +26°C° 0 mm 3 mps 722 mmHg 38%
    18:00 +24°C° 0 mm 3 mps 722 mmHg 42%
    19:00 +21°C° 0 mm 2 mps 722 mmHg 45%
    20:00 +19°C° 0 mm 2 mps 722 mmHg 49%
    21:00 +19°C° 0 mm 2 mps 722 mmHg 49%
    22:00 +18°C° 0 mm 2 mps 722 mmHg 49%
    23:00 +18°C° 0 mm 1 mps 722 mmHg 49%

    30 April, Tuesday

    Time Temperature Precipitation Wind Pressure Humidity
    00:00 +18°C° 0 mm 1 mps 722 mmHg 50%
    01:00 +18°C° 0 mm 1 mps 721 mmHg 50%
    02:00 +16°C° 0 mm 1 mps 721 mmHg 51%
    03:00 +16°C° 0 mm 1 mps 722 mmHg 52%
    04:00 +15°C° 0 mm 1 mps 722 mmHg 53%
    05:00 +15°C° 0 mm 1 mps 722 mmHg 55%
    06:00 +18°C° 0 mm 1 mps 722 mmHg 49%
    07:00 +20°C° 0 mm 1 mps 723 mmHg 44%
    08:00 +23°C° 0 mm 1 mps 723 mmHg 39%
    09:00 +24°C° 0 mm 1 mps 723 mmHg 36%
    10:00 +26°C° 0 mm 2 mps 723 mmHg 33%
    11:00 +27°C° 0 mm 3 mps 723 mmHg 30%
    12:00 +27°C° 0 mm 3 mps 723 mmHg 30%
    13:00 +28°C° 0 mm 3 mps 723 mmHg 30%
    14:00 +28°C° 0 mm 4 mps 722 mmHg 30%
    15:00 +27°C° 0 mm 4 mps 722 mmHg 33%
    16:00 +26°C° 0 mm 4 mps 722 mmHg 37%
    17:00 +25°C° 0 mm 4 mps 722 mmHg 40%
    18:00 +22°C° 0 mm 3 mps 722 mmHg 46%
    19:00 +20°C° 0 mm 3 mps 722 mmHg 51%
    20:00 +18°C° 0 mm 2 mps 722 mmHg 57%
    21:00 +17°C° 0 mm 2 mps 722 mmHg 58%
    22:00 +16°C° 0 mm 2 mps 722 mmHg 59%
    23:00 +16°C° 0 mm 2 mps 722 mmHg 60%
    Show more